Track COSMOS 1833 now! 10-day predictions COSMOS 1833 is classified as:
1 17589U 87027A 25168.11238711 -.00000055 00000-0 -35724-5 0 9998 2 17589 70.9133 164.2400 0025674 241.7621 118.0907 14.13008957973024